TimePST,TemperatureF,Dew PointF,Humidity,Sea Level PressureIn,VisibilityMPH,Wind Direction,Wind SpeedMPH,Gust SpeedMPH,PrecipitationIn,Events,Conditions,WindDirDegrees,DateUTC
12:25 AM,-14.8,-18.4,84,30.15,2.5,Calm,Calm,-,N/A,,Partly Cloudy,0,2013-01-13 08:25:00
12:29 AM,-13.0,-16.6,84,30.15,1.0,Calm,Calm,-,N/A,,Mist,0,2013-01-13 08:29:00
12:37 AM,-11.2,-16.6,77,30.16,0.8,NW,3.5,-,N/A,,Mist,320,2013-01-13 08:37:00
12:42 AM,-11.2,-14.8,84,30.16,1.2,Calm,Calm,-,N/A,,Partly Cloudy,0,2013-01-13 08:42:00
12:51 AM,-9.4,-14.8,77,30.16,2.0,Calm,Calm,-,N/A,,Partly Cloudy,0,2013-01-13 08:51:00
12:53 AM,-9.9,-14.1,82,30.42,2.0,Calm,Calm,-,N/A,,Partly Cloudy,0,2013-01-13 08:53:00
1:05 AM,-11.2,-16.6,77,30.16,10.0,Calm,Calm,-,N/A,,Partly Cloudy,0,2013-01-13 09:05:00
1:17 AM,-9.4,-14.8,77,30.16,1.5,Calm,Calm,-,N/A,,Mostly Cloudy,0,2013-01-13 09:17:00
1:22 AM,-11.2,-14.8,84,30.17,1.2,Calm,Calm,-,N/A,,Scattered Clouds,0,2013-01-13 09:22:00
1:27 AM,-13.0,-16.6,84,30.17,2.0,Calm,Calm,-,N/A,,Mostly Cloudy,0,2013-01-13 09:27:00
1:33 AM,-7.6,-11.2,84,30.17,3.0,Calm,Calm,-,N/A,,Scattered Clouds,0,2013-01-13 09:33:00
1:41 AM,-7.6,-9.4,92,30.18,2.5,ENE,3.5,-,N/A,,Scattered Clouds,70,2013-01-13 09:41:00
1:49 AM,-11.2,-11.2,100,30.17,3.0,Calm,Calm,-,N/A,,Partly Cloudy,0,2013-01-13 09:49:00
1:53 AM,-9.9,-13.0,86,30.41,2.0,ENE,3.5,-,N/A,,Partly Cloudy,70,2013-01-13 09:53:00
2:17 AM,-14.8,-18.4,84,30.18,9.0,North,5.8,-,N/A,,Clear,360,2013-01-13 10:17:00
2:35 AM,-9.4,-13.0,84,30.19,10.0,North,4.6,-,N/A,,Partly Cloudy,360,2013-01-13 10:35:00
2:44 AM,-7.6,-11.2,84,30.19,1.8,NNE,4.6,-,N/A,,Mostly Cloudy,20,2013-01-13 10:44:00
2:48 AM,-7.6,-11.2,84,30.19,0.8,NNE,4.6,-,N/A,,Mist,20,2013-01-13 10:48:00
2:53 AM,-8.0,-11.0,86,30.41,0.5,NNE,3.5,-,N/A,Fog,Light Freezing Fog,20,2013-01-13 10:53:00
3:49 AM,-5.8,-9.4,84,30.17,1.8,Calm,Calm,-,N/A,,Haze,0,2013-01-13 11:49:00
3:51 AM,-5.8,-11.2,77,30.17,3.0,SW,3.5,-,N/A,,Haze,220,2013-01-13 11:51:00
3:53 AM,-5.1,-11.0,76,30.40,5.0,SW,3.5,-,N/A,,Haze,230,2013-01-13 11:53:00
4:53 AM,-2.9,-8.0,79,30.42,10.0,Calm,Calm,-,N/A,,Overcast,0,2013-01-13 12:53:00
5:53 AM,-2.9,-9.0,75,30.46,10.0,Calm,Calm,-,N/A,,Overcast,0,2013-01-13 13:53:00
6:08 AM,-2.2,-7.6,78,30.19,1.8,Calm,Calm,-,N/A,,Haze,0,2013-01-13 14:08:00
6:30 AM,-0.4,-5.8,78,30.19,1.2,Calm,Calm,-,N/A,,Haze,0,2013-01-13 14:30:00
6:34 AM,-0.4,-5.8,78,30.19,2.0,Calm,Calm,-,N/A,,Haze,0,2013-01-13 14:34:00
6:53 AM,-0.9,-5.1,83,30.48,2.0,Calm,Calm,-,N/A,,Overcast,0,2013-01-13 14:53:00
7:17 AM,-0.4,-4.0,85,30.20,4.0,Calm,Calm,-,N/A,,Overcast,0,2013-01-13 15:17:00
7:53 AM,1.9,-2.9,80,30.49,10.0,West,3.5,-,N/A,,Overcast,260,2013-01-13 15:53:00
8:53 AM,3.9,-0.9,80,30.50,10.0,Calm,Calm,-,N/A,,Overcast,0,2013-01-13 16:53:00
9:26 AM,8.6,3.2,79,30.24,10.0,Calm,Calm,-,N/A,,Scattered Clouds,0,2013-01-13 17:26:00
9:53 AM,8.1,3.9,83,30.50,9.0,Calm,Calm,-,N/A,,Clear,0,2013-01-13 17:53:00
10:49 AM,10.4,5.0,79,30.24,6.0,Calm,Calm,-,N/A,,Haze,0,2013-01-13 18:49:00
10:53 AM,10.0,5.0,80,30.49,8.0,Calm,Calm,-,N/A,,Mostly Cloudy,0,2013-01-13 18:53:00
11:53 AM,10.0,5.0,80,30.48,10.0,SE,3.5,-,N/A,,Overcast,140,2013-01-13 19:53:00
12:53 PM,10.9,6.1,81,30.45,10.0,SE,3.5,-,N/A,,Overcast,140,2013-01-13 20:53:00
1:53 PM,16.0,7.0,68,30.45,10.0,Calm,Calm,-,N/A,,Overcast,0,2013-01-13 21:53:00
2:53 PM,16.0,6.1,65,30.45,10.0,NE,3.5,-,N/A,,Scattered Clouds,50,2013-01-13 22:53:00
3:53 PM,12.0,5.0,73,30.45,10.0,NNE,5.8,-,N/A,,Clear,30,2013-01-13 23:53:00
4:53 PM,6.1,1.0,80,30.47,10.0,NNW,4.6,-,N/A,,Clear,340,2013-01-14 00:53:00
5:53 PM,1.0,-2.9,83,30.51,10.0,North,4.6,-,N/A,,Clear,360,2013-01-14 01:53:00
6:53 PM,-4.0,-8.0,83,30.53,10.0,Calm,Calm,-,N/A,,Clear,0,2013-01-14 02:53:00
7:53 PM,-4.0,-8.0,83,30.52,10.0,West,4.6,-,N/A,,Clear,270,2013-01-14 03:53:00
8:53 PM,-5.1,-9.0,83,30.53,10.0,Calm,Calm,-,N/A,,Clear,0,2013-01-14 04:53:00
9:53 PM,-5.1,-9.9,80,30.51,10.0,West,6.9,-,N/A,,Clear,270,2013-01-14 05:53:00
10:53 PM,-6.0,-9.9,83,30.52,10.0,Calm,Calm,-,N/A,,Clear,0,2013-01-14 06:53:00
11:53 PM,-8.0,-11.0,86,30.53,10.0,SW,4.6,-,N/A,,Clear,220,2013-01-14 07:53:00